Location: Staunton
(38.1490°N, 79.0720°W)
Time: 22:14:34
(UTC-05:00)

ISS - Pass Details

Date: 01 February 2021
Orbit: 417 x 422 km, 51.6° (Epoch: 07 March)

Event Time Altitude Azimuth Distance (km) Brightness Sun altitude
Rises 19:06:13 0° 317° (NW) 2,374 0.6 -17.3°
Reaches altitude 10° 19:08:36 10° 332° (NNW) 1,507 -0.7 -17.8°
Enters shadow 19:10:44 22° 9° (N) 973 -2.1 -18.2°
